Powrót do katalogu

SL-12 R/B(2)

AktywnyHEO
NORAD 25334·ROCKET BODY·🇷🇺 Russia

Wystrzelony May 7, 1998 z Baikonur Cosmodrome

Loading…

Następne Przeloty (najbliższe 24 godziny)

TLE

ŚwieżeSource: Space-Track

Epoka: Sep 13, 2026, 09:25 UTC

1 25334U 98028D   26256.39268318 -.00000190  00000-0  00000-0 0  9996
2 25334  17.3627 344.5745 4858813   6.6889 345.6841  1.82177809188653

Śledź SL-12 R/B(2) w czasie rzeczywistym z AllMySat

Download on the App Store